Location: Oakland
(41.0130°N, 74.2650°W)
Time: 12:15:44
(UTC-04:00)

Daily predictions for brighter satellites

Satellite Brightness Start Highest point End
(mag) Time Altitude Azimuth Time Altitude Azimuth Time Altitude Azimuth
Shenzhou-11 Module 4.4 19:18:19 10° W 19:20:32 18° SSW 19:22:45 10° SSE
SPOT 3 Rocket 3.9 19:16:19 10° S 19:21:26 74° WSW 19:26:36 10° NNW
Cosmos 1842 4.2 19:23:31 10° NNW 19:27:24 54° W 19:31:15 10° S
Cosmos 1943 Rocket 2.4 19:22:08 10° NNW 19:27:34 52° ENE 19:33:02 10° SE
Nadezhda 1 Rocket 4.4 19:22:41 10° NNW 19:29:04 72° W 19:35:21 10° S
Cosmos 2181 Rocket 4.2 19:24:16 10° N 19:30:18 50° ENE 19:36:14 10° SSE
Cosmos 1825 Rocket 3.6 19:29:49 10° N 19:34:12 63° E 19:38:34 10° SSE
H-2A R/B 3.0 19:34:32 10° SSE 19:38:03 45° ENE 19:41:39 10° N
Cosmos 1184 Rocket 3.3 19:35:16 10° NNW 19:38:38 66° W 19:41:58 10° S
FengYun 1-2 T 4.3 19:40:06 10° SSE 19:45:39 66° ENE 19:51:12 10° N
Cosmos 1898 Rocket 3.4 19:41:01 10° NNW 19:46:13 76° ENE 19:51:22 10° SSE
COSMOS 2406 4.3 19:43:06 10° SE 19:47:10 21° E 19:51:17 10° NE
USA 81 4.2 19:44:16 10° N 19:49:28 55° E 19:54:37 10° SSE
Cosmos 1814 Rocket 4.0 19:45:44 10° S 19:50:47 57° ESE 19:55:51 10° NNE
Cosmos 2074 Rocket 4.4 19:45:55 10° SSE 19:51:36 40° E 19:57:19 10° NNE
Cosmos 304 Rocket 4.4 19:48:42 10° SSE 19:52:55 31° E 19:57:08 10° NE
Cosmos 482 Debris 3.7 19:50:17 10° NW 19:54:27 70° NNE 19:56:04 22° ESE
Tiangong 2 3.4 19:52:54 10° W 19:55:15 19° SSW 19:57:35 10° SSE
Cosmos 1707 2.7 19:53:02 10° N 19:56:57 66° E 20:00:51 10° SSE
Cosmos 1709 Rocket 4.3 19:54:33 10° SSW 20:00:52 74° W 20:07:17 10° N
Cosmos 2150 Rocket 4.0 19:56:11 10° NNW 20:01:29 67° ENE 20:06:51 10° SSE
Cosmos 2369 Rocket 3.2 19:56:55 10° NW 20:02:20 48° WSW 20:07:41 10° S
Cosmos 990 Rocket 3.9 19:57:12 10° NNW 20:02:21 67° ENE 20:07:28 10° SSE
SL-08 ROCKET BODY 4.3 19:56:51 10° S 20:02:39 70° E 20:08:34 10° NNE
Cosmos 1340 Rocket 3.0 20:00:14 10° NNW 20:04:18 77° W 20:08:21 10° S
FENGYUN 3A 4.5 19:59:28 10° S 20:04:41 53° W 20:09:56 10° NNW
Cosmos 1758 Rocket 3.7 20:00:45 10° N 20:05:14 79° W 20:09:44 10° S
Resurs 1-3 4.1 20:03:09 15° SE 20:06:20 39° ENE 20:10:25 10° N
Envisat 3.5 20:05:29 16° SE 20:09:01 38° ENE 20:13:42 10° N
ALOS 3.7 20:04:44 10° SSW 20:09:07 40° W 20:13:31 10° NNW
Cosmos 389 Rocket 3.5 20:06:13 10° SSW 20:09:38 48° WNW 20:13:03 10° N
Cosmos 1356 Rocket 3.7 20:05:57 10° N 20:10:06 46° ENE 20:13:05 18° SE
Cosmos 1656 Rocket 3.9 20:04:50 10° NNW 20:10:22 51° ENE 20:14:09 19° SE
Lacrosse 5 3.4 20:06:43 10° WNW 20:11:16 34° SW 20:15:48 10° S
BREEZE M DEB (TANK) 3.3 20:03:50 10° WNW 20:11:24 63° NNE 20:12:59 28° E
Cosmos 1726 Rocket 3.9 20:08:42 10° SSW 20:13:03 66° W 20:17:23 10° N
Cosmos 1271 Rocket 4.4 20:12:23 10° SW 20:15:51 35° WNW 20:19:23 10° N
Resurs 01 Rocket 1.6 20:16:42 16° SSE 20:20:05 60° ENE 20:24:27 10° N
BREEZE-M DEB (TANK) 4.5 20:18:29 10° WNW 20:22:22 41° NNE 20:31:44 15° E
USA 186 2.7 20:25:29 26° NNE 20:25:29 26° NNE 20:26:51 10° N
Cosmos 2184 Rocket 3.9 20:18:21 10° S 20:24:35 71° E 20:30:55 10° NNE
Cosmos 2298 Rocket 4.4 20:19:52 10° NNW 20:25:10 67° WSW 20:30:27 10° S
In-Cosmos 22 4.3 20:21:44 10° N 20:27:18 55° ENE 20:31:00 21° SSE
CZ-2D R/B 3.2 20:26:31 15° S 20:29:36 83° W 20:33:25 10° NNW
GP-B 3.3 20:26:25 10° NNE 20:30:41 45° E 20:31:49 37° SE
FALCON 9 R/B 2.5 20:27:52 10° WSW 20:31:05 41° SSE 20:33:19 30° ESE
SJ-6B 4.2 20:29:11 10° S 20:33:00 40° W 20:36:46 10° NNW
Cosmos 1937 Rocket 4.1 20:28:39 10° NNW 20:33:51 57° WSW 20:38:59 10° S
ORS 1 (USA 231) 4.5 20:31:04 10° W 20:33:49 68° SW 20:33:49 68° SW
Cosmos 841 Rocket 3.4 20:29:01 10° SSW 20:34:10 89° WNW 20:39:21 10° NNE
ATLAS 2AS CENTAUR R/B 4.5 20:28:31 10° NNW 20:34:30 22° NNE 20:38:19 16° ENE
Cosmos 1378 4.4 20:31:49 10° NNW 20:35:25 42° W 20:38:59 10° SSW
Meteor 1-24 Rocket 3.8 20:32:52 10° N 20:38:54 85° E 20:44:00 14° S
USA 229 DEB 4.4 20:33:02 10° NW 20:40:02 56° WSW 20:46:57 11° SSE
USA 229 4.4 20:33:08 10° NW 20:40:08 56° WSW 20:46:59 11° SSE
YAOGAN 6 4.1 20:44:48 24° NNE 20:44:48 24° NNE 20:46:37 10° N
NOSS 3-1 (A) 4.1 20:37:08 10° NNW 20:44:44 69° NE 20:48:54 33° SE
BREEZE-M DEB (TANK) 4.0 20:47:18 10° NNW 20:47:45 13° NNW 20:47:45 13° NNW
Cosmos 1812 Rocket 3.5 20:48:56 60° ESE 20:49:13 62° E 20:53:39 10° NNE
Cosmos 1544 2.9 20:49:31 88° W 20:49:31 88° W 20:53:09 10° N
Cosmos 2327 Rocket 4.5 20:43:49 10° S 20:49:58 81° W 20:56:05 10° N
Cosmos 2084 3.7 20:48:09 10° SW 20:52:11 60° NW 20:54:36 22° NNE
NOSS 3-1 (C) 4.1 20:47:59 10° NW 20:55:41 84° WSW 21:00:23 30° SSE
Meteor 2-8 Rocket 4.4 20:53:15 10° N 20:59:26 86° W 21:03:15 24° S
MOS 1-B Rocket 4.1 20:55:10 15° S 21:00:35 76° WSW 21:06:22 10° NNW
ATLAS CENTAUR R/B 3.3 20:51:47 10° NW 21:03:51 61° WSW 21:05:47 38° S
GEOS 3 Rocket 3.7 21:00:29 10° NE 21:05:54 84° NW 21:11:17 10° SW
Cosmos 540 Rocket 3.3 21:01:20 10° SSW 21:06:27 89° E 21:11:35 10° NNE
Cosmos 1943 Rocket 4.4 21:06:46 10° NW 21:10:53 21° W 21:15:02 10° SSW
Meteor 2-19 Rocket 4.4 21:05:17 10° S 21:11:20 83° W 21:17:25 10° N
Cosmos 962 Rocket 4.4 21:11:22 53° SSE 21:12:42 67° E 21:19:01 10° NNE
Cosmos 1980 Rocket 4.5 21:13:52 10° NNE 21:14:44 11° NE 21:14:44 11° NE
Spot 2 Rocket 4.4 21:12:51 21° SSW 21:15:54 45° W 21:20:44 10° NNW
Cosmos 1939 Rocket 3.7 21:19:29 46° NW 21:19:29 46° NW 21:22:33 10° NNW
BREEZE-M DEB (TANK) 2.9 21:11:47 10° WSW 21:21:04 85° NNW 21:21:11 83° NNE
Meteor 1-21 Rocket 4.2 21:19:42 10° N 21:25:08 73° NE 21:25:08 73° NE
Cosmos 2154 Rocket 4.2 21:23:03 10° SSW 21:29:12 67° W 21:35:27 10° N
COSMOS 2406 3.8 21:25:24 10° SW 21:30:59 56° WNW 21:36:38 10° NNE
Cosmos 2341 Rocket 3.9 21:34:12 69° SSW 21:35:02 85° W 21:41:18 10° N
Cosmos 1125 Rocket 4.0 21:33:41 10° NNW 21:38:48 56° WSW 21:38:48 56° WSW
H-2A R/B 3.8 21:42:16 20° NNE 21:42:16 20° NNE 21:44:04 10° N
ERS-1 Rocket 4.1 21:51:22 37° NNW 21:51:22 37° NNW 21:54:22 10° NNW
ARGOS 4.3 21:57:12 38° N 21:57:12 38° N 22:00:29 10° N
Resurs 01 Rocket 4.5 21:55:06 10° WSW 21:56:55 12° W 21:58:46 10° WNW
ATLAS 2AS CENTAUR R/B 3.4 22:19:12 10° NNW 22:25:45 55° N 22:25:45 55° N
Cosmos 1980 Rocket 4.5 22:54:57 10° NNW 22:56:29 19° NNW 22:56:29 19° NNW
